RYR40M LEMD-LEBL

Flight info

Callsign RYR40M
Flight time 0h 57m
Altitude 30000
Route PINAR N870 PONEN T600 CASPE
Aircraft B738/M-SDE2E3FGHIRWXY/LB1

Departure

Time 2026-05-06 14:38
Airport Adolfo Suárez Madrid–Barajas Airport (LEMD)

Arrival

Time 2026-05-06 15:36
Airport Josep Tarradellas Barcelona-El Prat Airport (LEBL)
Time Latitude Longitude Altitude Speed Heading
2026-05-06 13:39 40.46995 -3.56858 1974 ft 0 kts 232°
2026-05-06 13:40 40.47139 -3.56783 1980 ft 0 kts 231°
2026-05-06 14:27 40.47135 -3.56790 1981 ft 3 kts 231°
2026-05-06 14:27 40.47123 -3.56835 1984 ft 6 kts 275°
2026-05-06 14:27 40.47143 -3.56880 1983 ft 7 kts 311°
2026-05-06 14:27 40.47199 -3.56920 1985 ft 10 kts 347°
2026-05-06 14:28 40.47267 -3.56919 1986 ft 10 kts 10°
2026-05-06 14:28 40.47323 -3.56873 1986 ft 10 kts 51°
2026-05-06 14:28 40.47364 -3.56795 1987 ft 11 kts 42°
2026-05-06 14:28 40.47437 -3.56801 1989 ft 13 kts 326°
2026-05-06 14:29 40.47519 -3.56884 1991 ft 17 kts 321°
2026-05-06 14:29 40.47622 -3.56989 1994 ft 20 kts 323°
2026-05-06 14:29 40.47738 -3.57103 1998 ft 22 kts 323°
2026-05-06 14:29 40.47862 -3.57231 2001 ft 23 kts 320°
2026-05-06 14:30 40.47989 -3.57365 2000 ft 25 kts 325°
2026-05-06 14:30 40.48143 -3.57513 1999 ft 30 kts 321°
2026-05-06 14:30 40.48317 -3.57692 1994 ft 34 kts 323°
2026-05-06 14:30 40.48515 -3.57862 1994 ft 33 kts 333°
2026-05-06 14:31 40.48711 -3.57926 1998 ft 14 kts
2026-05-06 14:31 40.48763 -3.57840 1995 ft 14 kts 88°
2026-05-06 14:31 40.48762 -3.57702 1991 ft 15 kts 89°
2026-05-06 14:31 40.48763 -3.57566 1989 ft 15 kts 89°
2026-05-06 14:32 40.48764 -3.57434 1987 ft 15 kts 91°
2026-05-06 14:32 40.48764 -3.57284 1984 ft 18 kts 90°
2026-05-06 14:32 40.48764 -3.57106 1980 ft 21 kts 90°
2026-05-06 14:32 40.48766 -3.56905 1979 ft 23 kts 90°
2026-05-06 14:33 40.48766 -3.56694 1977 ft 24 kts 89°
2026-05-06 14:33 40.48769 -3.56466 1967 ft 26 kts 89°
2026-05-06 14:33 40.48770 -3.56215 1960 ft 24 kts 88°
2026-05-06 14:33 40.48857 -3.56131 1958 ft 18 kts
2026-05-06 14:34 40.48982 -3.56134 1958 ft 18 kts 356°
2026-05-06 14:34 40.49102 -3.56138 1958 ft 17 kts
2026-05-06 14:34 40.49220 -3.56135 1958 ft 17 kts
2026-05-06 14:34 40.49334 -3.56137 1958 ft 16 kts 358°
2026-05-06 14:35 40.49447 -3.56141 1958 ft 17 kts 358°
2026-05-06 14:35 40.49575 -3.56142 1958 ft 21 kts
2026-05-06 14:35 40.49736 -3.56138 1958 ft 25 kts 359°
2026-05-06 14:35 40.49912 -3.56126 1960 ft 23 kts 35°
2026-05-06 14:36 40.50011 -3.55964 1962 ft 22 kts 52°
2026-05-06 14:36 40.50094 -3.55918 1959 ft 0 kts
2026-05-06 14:37 40.50136 -3.55916 1959 ft 23 kts
2026-05-06 14:37 40.50529 -3.55924 1964 ft 91 kts
2026-05-06 14:38 40.51397 -3.55936 1951 ft 160 kts 356°
2026-05-06 14:38 40.52624 -3.56003 2524 ft 184 kts 358°
2026-05-06 14:38 40.53902 -3.55986 3733 ft 177 kts
2026-05-06 14:38 40.55070 -3.55678 4938 ft 173 kts 17°
2026-05-06 14:39 40.56253 -3.55168 5869 ft 177 kts 19°
2026-05-06 14:39 40.57462 -3.54621 6526 ft 199 kts 19°
2026-05-06 14:39 40.58861 -3.54014 6897 ft 224 kts 19°
2026-05-06 14:39 40.60299 -3.53068 7284 ft 242 kts 36°
2026-05-06 14:40 40.61640 -3.51607 7728 ft 257 kts 42°
2026-05-06 14:40 40.63020 -3.49945 8058 ft 285 kts 42°
2026-05-06 14:40 40.64552 -3.48130 8641 ft 297 kts 41°
2026-05-06 14:40 40.66077 -3.46380 9950 ft 286 kts 40°
2026-05-06 14:41 40.67604 -3.44649 10696 ft 296 kts 40°
2026-05-06 14:41 40.69239 -3.42807 10930 ft 323 kts 40°
2026-05-06 14:41 40.71018 -3.40811 11133 ft 348 kts 40°
2026-05-06 14:41 40.72897 -3.38703 11639 ft 360 kts 40°
2026-05-06 14:42 40.74822 -3.36544 12413 ft 365 kts 40°
2026-05-06 14:42 40.76767 -3.34359 13203 ft 370 kts 40°
2026-05-06 14:42 40.78739 -3.32144 13989 ft 375 kts 40°
2026-05-06 14:42 40.80732 -3.29906 14735 ft 379 kts 40°
2026-05-06 14:43 40.82754 -3.27631 15525 ft 383 kts 40°
2026-05-06 14:43 40.84703 -3.25207 16270 ft 389 kts 51°
2026-05-06 14:43 40.85990 -3.22051 17018 ft 395 kts 71°
2026-05-06 14:43 40.86729 -3.18538 17786 ft 399 kts 75°
2026-05-06 14:44 40.87410 -3.14958 18437 ft 406 kts 76°
2026-05-06 14:44 40.88091 -3.11314 19016 ft 411 kts 76°
2026-05-06 14:44 40.88787 -3.07620 19612 ft 417 kts 75°
2026-05-06 14:45 40.90237 -3.00083 20715 ft 430 kts 75°
2026-05-06 14:45 40.90987 -2.96240 21281 ft 435 kts 75°
2026-05-06 14:45 40.91749 -2.92339 21863 ft 440 kts 75°
2026-05-06 14:45 40.92507 -2.88458 22407 ft 445 kts 75°
2026-05-06 14:46 40.93283 -2.84473 22925 ft 450 kts 75°
2026-05-06 14:46 40.94068 -2.80439 23455 ft 455 kts 75°
2026-05-06 14:46 40.94861 -2.76353 23904 ft 460 kts 75°
2026-05-06 14:46 40.95655 -2.72249 24373 ft 463 kts 75°
2026-05-06 14:47 40.96454 -2.68111 24853 ft 466 kts 75°
2026-05-06 14:47 40.97259 -2.63938 25243 ft 471 kts 75°
2026-05-06 14:47 40.98072 -2.59713 25615 ft 475 kts 75°
2026-05-06 14:47 40.98887 -2.55457 26073 ft 478 kts 75°
2026-05-06 14:48 40.99703 -2.51185 26531 ft 480 kts 75°
2026-05-06 14:48 41.00523 -2.46882 26945 ft 483 kts 75°
2026-05-06 14:48 41.01348 -2.42547 27334 ft 487 kts 75°
2026-05-06 14:48 41.02174 -2.38194 27721 ft 490 kts 75°
2026-05-06 14:49 41.02727 -2.35281 27969 ft 492 kts 75°
2026-05-06 14:49 41.03560 -2.30885 28349 ft 494 kts 75°
2026-05-06 14:49 41.04399 -2.26454 28695 ft 498 kts 75°
2026-05-06 14:49 41.05519 -2.20524 29212 ft 500 kts 75°
2026-05-06 14:50 41.06086 -2.17514 29606 ft 499 kts 75°
2026-05-06 14:50 41.06924 -2.13057 30206 ft 496 kts 76°
2026-05-06 14:50 41.07754 -2.08638 30688 ft 494 kts 76°
2026-05-06 14:50 41.08579 -2.04225 31105 ft 493 kts 76°
2026-05-06 14:51 41.09401 -1.99814 31573 ft 492 kts 76°
2026-05-06 14:51 41.10216 -1.95423 31958 ft 492 kts 76°
2026-05-06 14:51 41.11034 -1.91008 31940 ft 494 kts 76°
2026-05-06 14:52 41.12663 -1.82188 31967 ft 491 kts 76°
2026-05-06 14:52 41.14282 -1.73387 31960 ft 489 kts 76°
2026-05-06 14:53 41.15887 -1.64620 31965 ft 488 kts 76°
2026-05-06 14:53 41.17472 -1.55924 31965 ft 488 kts 76°
2026-05-06 14:54 41.19064 -1.47150 31966 ft 489 kts 76°
2026-05-06 14:54 41.20655 -1.38346 31968 ft 491 kts 76°
2026-05-06 14:55 41.22242 -1.29508 31972 ft 493 kts 77°
2026-05-06 14:55 41.22992 -1.20472 31975 ft 493 kts 88°
2026-05-06 14:56 41.23198 -1.11344 31956 ft 495 kts 90°
2026-05-06 14:56 41.23447 -1.02209 31956 ft 496 kts 89°
2026-05-06 14:57 41.23763 -0.93058 31966 ft 496 kts 88°
2026-05-06 14:57 41.24071 -0.83900 31955 ft 496 kts 89°
2026-05-06 14:58 41.24357 -0.74753 31948 ft 495 kts 89°
2026-05-06 14:58 41.24631 -0.65597 31950 ft 495 kts 89°
2026-05-06 14:59 41.24896 -0.56458 31949 ft 495 kts 89°
2026-05-06 14:59 41.25156 -0.47321 31947 ft 495 kts 89°
2026-05-06 15:00 41.25408 -0.38169 31947 ft 495 kts 90°
2026-05-06 15:00 41.25653 -0.29066 31947 ft 495 kts 90°
2026-05-06 15:01 41.25891 -0.19910 31945 ft 496 kts 90°
2026-05-06 15:01 41.26122 -0.10770 31943 ft 495 kts 90°
2026-05-06 15:01 41.26234 -0.06256 31923 ft 480 kts 90°
2026-05-06 15:02 41.26342 -0.01894 31920 ft 463 kts 90°
2026-05-06 15:02 41.26444 0.02312 31910 ft 448 kts 90°
2026-05-06 15:02 41.26540 0.06391 31916 ft 433 kts 91°
2026-05-06 15:02 41.26631 0.10335 31916 ft 420 kts 91°
2026-05-06 15:03 41.26718 0.14159 31925 ft 408 kts 91°
2026-05-06 15:03 41.26802 0.17881 31717 ft 402 kts 91°
2026-05-06 15:03 41.26782 0.21643 30790 ft 413 kts 99°
2026-05-06 15:03 41.26363 0.25511 29456 ft 435 kts 103°
2026-05-06 15:04 41.25784 0.29555 28034 ft 454 kts 104°
2026-05-06 15:04 41.25174 0.33721 27050 ft 462 kts 103°
2026-05-06 15:04 41.24592 0.37904 26468 ft 459 kts 103°
2026-05-06 15:04 41.24045 0.42062 25978 ft 454 kts 103°
2026-05-06 15:05 41.23523 0.46169 25562 ft 447 kts 103°
2026-05-06 15:05 41.23011 0.50211 25195 ft 441 kts 103°
2026-05-06 15:05 41.22502 0.54209 24838 ft 436 kts 103°
2026-05-06 15:05 41.21574 0.58691 24424 ft 432 kts 121°
2026-05-06 15:06 41.20839 0.60417 24266 ft 429 kts 130°
2026-05-06 15:06 41.18232 0.64264 23845 ft 420 kts 141°
2026-05-06 15:06 41.16153 0.66972 23488 ft 417 kts 142°
2026-05-06 15:06 41.14085 0.69649 23099 ft 415 kts 141°
2026-05-06 15:07 41.12034 0.72325 22727 ft 412 kts 141°
2026-05-06 15:07 41.10016 0.74986 22407 ft 408 kts 141°
2026-05-06 15:07 41.08011 0.77648 22057 ft 405 kts 141°
2026-05-06 15:07 41.06031 0.80282 21760 ft 403 kts 140°
2026-05-06 15:08 41.04057 0.82907 21416 ft 401 kts 140°
2026-05-06 15:08 41.02095 0.85516 21101 ft 399 kts 140°
2026-05-06 15:08 41.00138 0.88115 20785 ft 397 kts 140°
2026-05-06 15:08 40.98429 0.91009 20497 ft 404 kts 122°
2026-05-06 15:09 40.97499 0.94525 20211 ft 408 kts 104°
2026-05-06 15:09 40.96947 0.98192 19895 ft 407 kts 103°
2026-05-06 15:09 40.96433 1.01865 19562 ft 406 kts 102°
2026-05-06 15:09 40.95921 1.05540 19234 ft 405 kts 102°
2026-05-06 15:10 40.95405 1.09168 18908 ft 399 kts 102°
2026-05-06 15:10 40.94883 1.12760 18596 ft 397 kts 103°
2026-05-06 15:10 40.94353 1.16337 18275 ft 396 kts 103°
2026-05-06 15:10 40.93819 1.19900 17925 ft 394 kts 103°
2026-05-06 15:11 40.93283 1.23445 17591 ft 392 kts 103°
2026-05-06 15:11 40.92749 1.26967 17260 ft 389 kts 103°
2026-05-06 15:11 40.92218 1.30459 16939 ft 386 kts 103°
2026-05-06 15:11 40.91698 1.33874 16630 ft 382 kts 103°
2026-05-06 15:12 40.91174 1.37305 16332 ft 379 kts 103°
2026-05-06 15:12 40.90654 1.40707 16026 ft 376 kts 102°
2026-05-06 15:12 40.90137 1.44083 15730 ft 373 kts 102°
2026-05-06 15:12 40.89623 1.47435 15430 ft 371 kts 102°
2026-05-06 15:13 40.89110 1.50773 15135 ft 369 kts 102°
2026-05-06 15:13 40.88600 1.54083 14846 ft 367 kts 102°
2026-05-06 15:13 40.88091 1.57383 14560 ft 366 kts 102°
2026-05-06 15:13 40.87583 1.60666 14271 ft 364 kts 102°
2026-05-06 15:14 40.87232 1.63964 13960 ft 363 kts 88°
2026-05-06 15:14 40.87544 1.67257 13700 ft 360 kts 81°
2026-05-06 15:14 40.87931 1.70511 13377 ft 358 kts 81°
2026-05-06 15:14 40.88310 1.73749 13070 ft 355 kts 81°
2026-05-06 15:15 40.88674 1.76964 12770 ft 352 kts 81°
2026-05-06 15:15 40.89027 1.80158 12487 ft 349 kts 81°
2026-05-06 15:15 40.89415 1.83315 12209 ft 347 kts 74°
2026-05-06 15:15 40.90452 1.86145 11946 ft 342 kts 51°
2026-05-06 15:16 40.92031 1.88465 11714 ft 340 kts 42°
2026-05-06 15:16 40.93758 1.90598 11460 ft 339 kts 40°
2026-05-06 15:16 40.95510 1.92690 11209 ft 338 kts 40°
2026-05-06 15:16 40.97257 1.94772 10948 ft 337 kts 40°
2026-05-06 15:17 40.98998 1.96859 10438 ft 333 kts 40°
2026-05-06 15:17 41.00669 1.98881 10117 ft 317 kts 40°
2026-05-06 15:17 41.02252 2.00809 9940 ft 299 kts 40°
2026-05-06 15:17 41.03738 2.02624 9690 ft 290 kts 40°
2026-05-06 15:18 41.05218 2.04434 9400 ft 287 kts 40°
2026-05-06 15:18 41.06674 2.06216 9134 ft 283 kts 40°
2026-05-06 15:18 41.08107 2.07974 8894 ft 279 kts 40°
2026-05-06 15:18 41.09532 2.09723 8665 ft 278 kts 40°
2026-05-06 15:19 41.10947 2.11462 8437 ft 277 kts 40°
2026-05-06 15:19 41.12355 2.13194 8215 ft 275 kts 40°
2026-05-06 15:19 41.13739 2.14898 7992 ft 274 kts 40°
2026-05-06 15:19 41.15152 2.16639 7766 ft 274 kts 40°
2026-05-06 15:20 41.16546 2.18356 7541 ft 273 kts 40°
2026-05-06 15:20 41.17920 2.20052 7328 ft 273 kts 40°
2026-05-06 15:20 41.19304 2.21760 7100 ft 272 kts 40°
2026-05-06 15:20 41.20690 2.23472 6880 ft 271 kts 40°
2026-05-06 15:21 41.22068 2.25175 6664 ft 271 kts 40°
2026-05-06 15:21 41.23445 2.26878 6436 ft 270 kts 40°
2026-05-06 15:21 41.24812 2.28570 6213 ft 267 kts 40°
2026-05-06 15:21 41.26165 2.30247 5974 ft 263 kts 40°
2026-05-06 15:22 41.27493 2.31891 5753 ft 259 kts 40°
2026-05-06 15:22 41.28802 2.33514 5540 ft 255 kts 40°
2026-05-06 15:22 41.30091 2.35113 5335 ft 251 kts 40°
2026-05-06 15:22 41.31361 2.36689 5134 ft 248 kts 40°
2026-05-06 15:23 41.32534 2.38343 4977 ft 246 kts 56°
2026-05-06 15:23 41.33252 2.40394 4876 ft 243 kts 65°
2026-05-06 15:23 41.33930 2.42460 4746 ft 244 kts 64°
2026-05-06 15:23 41.34629 2.44539 4627 ft 247 kts 64°
2026-05-06 15:24 41.35333 2.46630 4497 ft 248 kts 64°
2026-05-06 15:24 41.36044 2.48733 4370 ft 248 kts 64°
2026-05-06 15:24 41.36746 2.50811 4235 ft 245 kts 64°
2026-05-06 15:24 41.37442 2.52875 4107 ft 243 kts 64°
2026-05-06 15:25 41.38136 2.54914 3978 ft 241 kts 64°
2026-05-06 15:25 41.38831 2.56942 3846 ft 240 kts 64°
2026-05-06 15:25 41.39522 2.58965 3723 ft 239 kts 64°
2026-05-06 15:25 41.40378 2.60839 3571 ft 238 kts 42°
2026-05-06 15:26 41.41796 2.61883 3463 ft 233 kts
2026-05-06 15:26 41.43373 2.61756 3345 ft 228 kts 336°
2026-05-06 15:26 41.44665 2.60571 3241 ft 227 kts 315°
2026-05-06 15:26 41.45750 2.59034 3126 ft 228 kts 311°
2026-05-06 15:27 41.46776 2.57441 2970 ft 226 kts 299°
2026-05-06 15:27 41.47259 2.55480 2855 ft 223 kts 274°
2026-05-06 15:27 41.47053 2.53480 2768 ft 216 kts 248°
2026-05-06 15:27 41.46272 2.51777 2633 ft 216 kts 235°
2026-05-06 15:28 41.45458 2.50093 2510 ft 217 kts 237°
2026-05-06 15:28 41.44673 2.48396 2389 ft 219 kts 238°
2026-05-06 15:28 41.43883 2.46649 2318 ft 219 kts 238°
2026-05-06 15:28 41.43122 2.44952 2301 ft 205 kts 238°
2026-05-06 15:29 41.42423 2.43374 2285 ft 192 kts 238°
2026-05-06 15:29 41.41750 2.41868 2304 ft 186 kts 238°
2026-05-06 15:29 41.41099 2.40400 2296 ft 182 kts 238°
2026-05-06 15:29 41.40456 2.38941 2310 ft 183 kts 238°
2026-05-06 15:30 41.39852 2.37441 2326 ft 186 kts 244°
2026-05-06 15:30 41.39312 2.35849 2328 ft 188 kts 244°
2026-05-06 15:30 41.38775 2.34270 2315 ft 186 kts 244°
2026-05-06 15:30 41.38239 2.32709 2308 ft 184 kts 243°
2026-05-06 15:31 41.37707 2.31166 2308 ft 183 kts 244°
2026-05-06 15:31 41.37179 2.29630 2347 ft 185 kts 243°
2026-05-06 15:31 41.36656 2.28108 2333 ft 171 kts 242°
2026-05-06 15:32 41.35758 2.25492 2306 ft 145 kts 242°
2026-05-06 15:32 41.35330 2.24249 2268 ft 151 kts 243°
2026-05-06 15:32 41.34892 2.22974 2094 ft 150 kts 244°
2026-05-06 15:32 41.34461 2.21713 1888 ft 145 kts 240°
2026-05-06 15:33 41.34052 2.20531 1693 ft 141 kts 242°
2026-05-06 15:33 41.33651 2.19346 1498 ft 139 kts 239°
2026-05-06 15:33 41.33242 2.18181 1326 ft 138 kts 240°
2026-05-06 15:33 41.32830 2.16974 1121 ft 150 kts 244°
2026-05-06 15:34 41.32404 2.15724 922 ft 147 kts 244°
2026-05-06 15:34 41.31981 2.14509 763 ft 144 kts 241°
2026-05-06 15:34 41.31711 2.13687 635 ft 146 kts 240°
2026-05-06 15:34 41.31300 2.12441 422 ft 147 kts 242°
2026-05-06 15:35 41.30878 2.11238 213 ft 139 kts 238°
2026-05-06 15:35 41.30487 2.10093 28 ft 131 kts 242°
2026-05-06 15:35 41.30142 2.09122 16 ft 96 kts 245°
2026-05-06 15:35 41.29924 2.08496 23 ft 53 kts 243°
2026-05-06 15:36 41.29801 2.08124 19 ft 42 kts 247°
2026-05-06 15:36 41.29750 2.07761 14 ft 31 kts 274°
2026-05-06 15:36 41.29798 2.07614 13 ft 9 kts 336°
2026-05-06 15:36 41.29801 2.07613 13 ft 0 kts 336°
2026-05-06 15:39 41.29809 2.07608 13 ft 2 kts 336°
2026-05-06 15:39 41.29827 2.07601 14 ft 7 kts 348°
2026-05-06 15:39 41.29881 2.07635 15 ft 10 kts 53°
2026-05-06 15:40 41.29922 2.07716 15 ft 12 kts 27°
2026-05-06 15:40 41.29992 2.07744 16 ft 11 kts 58°
2026-05-06 15:40 41.30026 2.07842 16 ft 13 kts 66°
2026-05-06 15:40 41.30098 2.07957 17 ft 18 kts
2026-05-06 15:41 41.30196 2.07968 20 ft 10 kts 19°
2026-05-06 15:41 41.30211 2.07974 19 ft 0 kts 18°
2026-05-06 15:41 41.30214 2.07975 19 ft 1 kts 18°
2026-05-06 15:41 41.30218 2.07977 19 ft 0 kts 18°